Regional Weather Roundup
Issued by NWS Binghamton, NY

Home | Current Version | Previous Version | Text Only | Print | Product List | Glossary On
Versions: 1 2 3 4 5 6 7 8 9 10 11 12 13 14 15 16 17 18 19 20 21 22 23 24 25 26 27 28 29 30 31 32 33 34 35 36 37 38 39 40 41 42 43 44 45 46 47 48 49 50
000
ASUS41 KBGM 141910
RWRBGM

REGIONAL WEATHER ROUNDUP
NATIONAL WEATHER SERVICE BINGHAMTON NY
200 PM EST SUN FEB 14 2016

Note: "fair" indicates few or no clouds below 12,000 feet with no
significant weather and/or obstructions to visibility.

* = Station(s) that does not report precipitation, such as rain,
snow, etc, also no thunder or fog.

!NYZ009-015>018-022>025-036-037-044>046-055>057-062-142000
...CENTRAL NEW YORK...

CITY           SKY/WX    TMP DP  RH WIND       PRES   REMARKS
BINGHAMTON     SUNNY      3 -12  49 VRB5      30.34F WCI  -6
CORTLAND       FAIR       3  -9  55 W7        30.42S WCI  -9
DANSVILLE      SUNNY      7  -9  48 CALM      30.46F
ELMIRA         SUNNY      7 -10  46 VRB3      30.44F
ITHACA         MOSUNNY    4  -7  60 NW6       30.44F WCI  -7
HORNELL        SUNNY      7  -9  47 CALM      30.43F
MONTICELLO     SUNNY      5 -11  47 W8        30.36F WCI  -8
NORWICH        SUNNY      5 -15  39 NW6       30.43F WCI  -6
ONEONTA        SUNNY      0 -20  38 N9        30.32S WCI -16
PENN YAN       SUNNY      8  -8  48 NW5       30.44F WCI   0
ROME           SUNNY     -3 -16  53 SW7       30.53F WCI -16
SIDNEY         SUNNY      9  -9  43 NW6       30.42F WCI  -1
SYRACUSE       MOSUNNY    2 -12  52 CALM      30.52F
$$

!PAZ038>040-043-044-047-048-072-142000
...NORTHEAST PENNSYLVANIA...

CITY           SKY/WX    TMP DP  RH WIND       PRES   REMARKS
HAZLETON       SUNNY      9 -11  40 W5        30.38S WCI   0
SCRANTON       SUNNY      9  -9  44 CALM      30.43F
$$
&&
KEY
WCI = WIND CHILL INDEX
VSB = VISIBILITY
HX  = HEAT INDEX
$$



USA.gov is the U.S. government's official web portal to all federal, state and local government web resources and services.